ATLAS 3B CENTAUR R/B - Orbit

View from above orbital plane
View from above orbital plane
View from above satellite
View from above satellite

Ground track
Ground track

The orbit data is extracted from the following two-line orbital elements,

1 28118U 03057B   13143.31300152  .00104948  00000-0  23590-2 0  7931
2 28118 028.1585 095.5869 4304513 053.9456 023.1101 06.96310753166950
Epoch (UTC): 23 May 2013 07:30:43
Eccentricity: 0.4304513
inclination: 28.1585°
perigee height: 219 km
apogee height: 10192 km
right ascension of ascending node: 95.5869°
argument of perigee: 53.9456°
revolutions per day: 6.96310753
mean anomaly at epoch: 23.1101°
orbit number at epoch: 16695

The dashed part of the orbit path shows where the satellite is in the earth's shadow,  

Developed and maintained by Chris Peat, Heavens-Above GmbH. Please read the updated FAQ before sending e-mail. Imprint. DLR